EW7966 Weather Reports


time (UTC)temp
F
wind
direction
speed
knots
gust
knots
rain 1hr
in
rain 24hr
in
rain mn
in
humidity
%
barometer
mb
20260905152505 75 254 5.2 8.7 0.00 0.00 0.00 38 1020.0
20260905152006 74 304 5.2 8.7 0.00 0.00 0.00 40 1020.0
20260905151505 74 313 4.3 7.0 0.00 0.00 0.00 40 1020.0
20260905151503 74 313 3.5 7.0 0.00 0.00 0.00 40 1002.5
20260905150504 74 298 6.1 10.4 0.00 0.00 0.00 40 1019.9
20260905150007 74 288 6.1 10.4 0.00 0.00 0.00 40 1019.9
20260905150004 74 288 6.1 10.4 0.00 0.00 0.00 40 1002.5
20260905145505 74 301 2.6 11.3 0.00 0.00 0.00 41 1019.9
20260905145006 73 292 5.2 11.3 0.00 0.00 0.00 41 1019.9
20260905144504 73 286 4.3 10.4 0.00 0.00 0.00 41 1002.6
20260905144006 72 297 4.3 7.8 0.00 0.00 0.00 43 1019.9
20260905143505 72 286 3.5 7.8 0.00 0.00 0.00 44 1019.9
20260905143007 71 294 3.5 7.0 0.00 0.00 0.00 46 1019.9
20260905142505 71 259 3.5 7.0 0.00 0.00 0.00 47 1019.9
20260905141506 69 265 2.6 5.2 0.00 0.00 0.00 49 1019.7
20260905141504 69 265 2.6 5.2 0.00 0.00 0.00 49 1002.5
20260905141007 68 274 2.6 5.2 0.00 0.00 0.00 51 1019.7
20260905140505 68 294 1.7 4.3 0.00 0.00 0.00 53 1019.7
20260905140009 67 226 2.6 6.1 0.00 0.00 0.00 54 1019.7
20260905140005 67 226 1.7 6.1 0.00 0.00 0.00 54 1002.4
20260905135506 66 223 1.7 6.1 0.00 0.00 0.00 58 1019.7
20260905135005 65 206 2.6 4.3 0.00 0.00 0.00 59 1019.6
20260905134557 65 236 1.7 4.3 0.00 0.00 0.00 61 1002.3
20260905134459 65 237 2.6 4.3 0.00 0.00 0.00 62 1019.6
20260905134006 64 241 1.7 4.3 0.00 0.00 0.00 63 1019.5
20260905133506 64 230 2.6 4.3 0.00 0.00 0.00 64 1019.5
20260905133006 63 218 2.6 3.5 0.00 0.00 0.00 65 1019.5
20260905133003 63 218 1.7 3.5 0.00 0.00 0.00 65 1002.2
20260905132505 63 218 0.9 1.7 0.00 0.00 0.00 66 1019.5
20260905132006 62 218 0.0 0.9 0.00 0.00 0.00 68 1019.4
20260905131609 61 218 0.0 1.7 0.00 0.00 0.00 68 1002.2
20260905131500 61 218 0.0 1.7 0.00 0.00 0.00 69 1019.4
20260905131006 61 218 0.0 2.6 0.00 0.00 0.00 69 1019.4
20260905130506 61 218 0.9 2.6 0.00 0.00 0.00 69 1019.2
20260905130007 60 218 1.7 2.6 0.00 0.00 0.00 70 1019.0
20260905130004 60 218 0.9 2.6 0.00 0.00 0.00 70 1001.7
20260905125505 60 218 1.7 3.5 0.00 0.00 0.00 71 1019.0
20260905125007 60 218 1.7 4.3 0.00 0.00 0.00 72 1018.9
20260905124505 59 237 1.7 4.3 0.00 0.00 0.00 73 1001.5
20260905124005 60 237 1.7 3.5 0.00 0.00 0.00 73 1018.8
20260905123011 60 237 1.7 6.1 0.00 0.00 0.00 73 1001.3
20260905123006 60 237 2.6 6.1 0.00 0.00 0.00 73 1018.7
20260905122505 60 196 1.7 7.0 0.00 0.00 0.00 74 1018.7
20260905122006 60 212 2.6 7.0 0.00 0.00 0.00 74 1018.6
20260905121505 60 206 3.5 6.1 0.00 0.00 0.00 75 1018.5
20260905121503 60 206 3.5 6.1 0.00 0.00 0.00 75 1001.1
20260905121006 59 215 1.7 5.2 0.00 0.00 0.00 75 1018.5
20260905120505 59 168 2.6 5.2 0.00 0.00 0.00 76 1018.4
20260905120007 59 199 2.6 6.1 0.00 0.00 0.00 77 1018.4
20260905120004 59 199 1.7 6.1 0.00 0.00 0.00 77 1000.9
20260905115505 59 200 3.5 6.1 0.00 0.00 0.00 78 1018.4
20260905115006 59 213 3.5 5.2 0.00 0.00 0.00 78 1018.4
20260905114505 59 221 2.6 4.3 0.00 0.00 0.00 78 1018.4
20260905114006 59 213 2.6 4.3 0.00 0.00 0.00 77 1018.5
20260905113505 60 252 1.7 4.3 0.00 0.00 0.00 76 1018.6
20260905113007 60 225 1.7 4.3 0.00 0.00 0.00 77 1018.6
20260905113003 60 225 1.7 4.3 0.00 0.00 0.00 77 1001.1
20260905112006 59 196 2.6 5.2 0.00 0.00 0.00 78 1018.6
20260905111505 59 217 2.6 5.2 0.00 0.00 0.00 79 1018.6
20260905111503 59 217 2.6 5.2 0.00 0.00 0.00 79 1001.2
20260905111006 59 212 2.6 4.3 0.00 0.00 0.00 79 1018.6
20260905110100 59 205 1.7 4.3 0.00 0.00 0.00 79 1001.3
20260905110001 59 205 2.6 4.3 0.00 0.00 0.00 79 1018.6
20260905105505 59 205 1.7 5.2 0.00 0.00 0.00 78 1018.6
20260905104503 60 230 0.9 5.2 0.00 0.00 0.00 78 1001.2
20260905104006 60 230 3.5 5.2 0.00 0.00 0.00 77 1018.5
20260905103006 60 203 2.6 5.2 0.00 0.00 0.00 78 1018.6
20260905103004 60 203 1.7 5.2 0.00 0.00 0.00 78 1001.2
20260905102505 60 189 2.6 5.2 0.00 0.00 0.00 78 1018.6
20260905102005 60 169 1.7 5.2 0.00 0.00 0.00 78 1018.7
20260905101506 60 198 2.6 6.1 0.00 0.00 0.00 79 1018.6
20260905101504 60 198 1.7 6.1 0.00 0.00 0.00 79 1001.3
20260905101006 60 195 2.6 7.0 0.00 0.00 0.00 79 1018.8
20260905100505 60 190 3.5 7.0 0.00 0.00 0.00 79 1018.7
20260905100007 60 188 4.3 7.0 0.00 0.00 0.00 78 1018.7
20260905100005 60 188 4.3 7.0 0.00 0.00 0.00 78 1001.4
20260905095505 60 212 1.7 7.0 0.00 0.00 0.00 78 1018.8
20260905095006 59 191 3.5 5.2 0.00 0.00 0.00 77 1018.8
20260905094504 59 181 3.5 6.1 0.00 0.00 0.00 77 1018.8
20260905094006 59 181 2.6 6.1 0.00 0.00 0.00 77 1018.8
20260905093505 58 169 3.5 4.3 0.00 0.00 0.00 77 1018.8
20260905093003 58 169 0.9 2.6 0.00 0.00 0.00 75 1001.5
20260905092007 59 169 0.9 3.5 0.00 0.00 0.00 73 1018.9
20260905091505 60 169 0.0 4.3 0.00 0.00 0.00 71 1019.0
20260905091503 60 169 0.0 4.3 0.00 0.00 0.00 71 1001.8
20260905091006 60 169 2.6 4.3 0.00 0.00 0.00 73 1018.9
20260905090506 60 169 1.7 3.5 0.00 0.00 0.00 72 1019.0
20260905090007 61 169 1.7 2.6 0.00 0.00 0.00 69 1019.1
20260905090004 61 169 0.9 2.6 0.00 0.00 0.00 69 1001.8
20260905085505 61 169 0.9 2.6 0.00 0.00 0.00 69 1019.1
20260905085006 62 169 1.7 3.5 0.00 0.00 0.00 68 1019.1
20260905084506 62 169 2.6 5.2 0.00 0.00 0.00 68 1019.0
20260905084503 62 169 1.7 5.2 0.00 0.00 0.00 68 1001.7
20260905083505 62 203 1.7 2.6 0.00 0.00 0.00 67 1019.1
20260905083006 63 203 0.9 3.5 0.00 0.00 0.00 66 1018.9
20260905082006 64 236 0.9 4.3 0.00 0.00 0.00 64 1019.0
20260905081505 64 190 1.7 4.3 0.00 0.00 0.00 62 1018.9
20260905081006 65 190 1.7 9.6 0.00 0.00 0.00 61 1018.8
20260905080505 66 175 5.2 15.6 0.00 0.00 0.00 60 1018.7
20260905080006 66 153 8.7 15.6 0.00 0.00 0.00 59 1018.6
20260905075505 66 156 9.6 16.5 0.00 0.00 0.00 59 1018.4
20260905075008 66 129 8.7 13.0 0.00 0.00 0.00 59 1018.5
20260905074628 67 124 8.7 13.0 0.00 0.00 0.00 58 1001.2
20260905074458 67 110 8.7 13.0 0.00 0.00 0.00 58 1018.4
20260905074006 66 183 5.2 9.6 0.00 0.00 0.00 59 1018.2
20260905073505 66 165 4.3 8.7 0.00 0.00 0.00 59 1018.2
20260905073006 67 187 2.6 8.7 0.00 0.00 0.00 57 1018.3
20260905073003 67 187 1.7 8.7 0.00 0.00 0.00 57 1000.9
20260905072505 68 213 3.5 8.7 0.00 0.00 0.00 56 1018.2
20260905072006 68 213 6.1 10.4 0.00 0.00 0.00 56 1018.2
20260905071504 68 209 5.2 12.2 0.00 0.00 0.00 55 1018.2
20260905071000 68 184 7.0 13.0 0.00 0.00 0.00 55 1018.1
20260905070505 68 173 7.0 13.0 0.00 0.00 0.00 55 1018.1
20260905070006 68 184 8.7 11.3 0.00 0.00 0.00 55 1018.2
20260905070003 68 184 7.8 11.3 0.00 0.00 0.00 55 1000.8
20260905065504 68 166 7.8 11.3 0.00 0.00 0.00 55 1018.2
20260905065006 68 185 7.8 14.8 0.00 0.00 0.00 55 1018.2
20260905064504 68 175 10.4 16.5 0.00 0.00 0.00 55 1018.2
20260905064005 68 157 10.4 17.4 0.00 0.00 0.00 55 1018.2
20260905063505 68 189 10.4 16.5 0.00 0.00 0.00 55 1018.2
20260905063007 68 164 10.4 17.4 0.00 0.00 0.00 56 1018.3
20260905063003 68 164 9.6 17.4 0.00 0.00 0.00 56 1000.9
20260905062505 68 148 8.7 13.9 0.00 0.00 0.00 56 1018.4
20260905062006 68 177 8.7 14.8 0.00 0.00 0.00 56 1018.4
20260905061505 68 161 8.7 15.6 0.00 0.00 0.00 56 1018.4
20260905061503 68 161 8.7 15.6 0.00 0.00 0.00 56 1001.1
20260905061005 68 153 7.8 11.3 0.00 0.00 0.00 56 1018.4
20260905060505 68 146 7.0 13.9 0.00 0.00 0.00 56 1018.4
20260905060009 68 150 7.0 13.9 0.00 0.00 0.00 55 1018.5
20260905060004 68 150 6.1 13.9 0.00 0.00 0.00 55 1001.1
20260905055504 69 165 8.7 14.8 0.00 0.00 0.00 54 1018.4
20260905055004 69 152 8.7 16.5 0.00 0.00 0.00 53 1018.4
20260905054510 69 156 9.6 18.2 0.00 0.00 0.00 53 1001.2
20260905054505 69 155 10.4 18.2 0.00 0.00 0.00 53 1018.6
20260905054005 69 158 9.6 13.9 0.00 0.00 0.00 53 1018.4
20260905053503 69 185 8.7 14.8 0.00 0.00 0.00 53 1018.4
20260905053007 69 163 9.6 15.6 0.00 0.00 0.00 53 1018.4
20260905053002 69 163 8.7 15.6 0.00 0.00 0.00 53 1000.9
20260905052503 69 165 8.7 13.9 0.00 0.00 0.00 53 1018.4
20260905052004 69 148 7.8 13.9 0.00 0.00 0.00 53 1018.4
20260905051502 69 188 8.7 13.0 0.00 0.00 0.00 53 1000.9
20260905051005 69 187 8.7 13.9 0.00 0.00 0.00 52 1018.4
20260905050503 70 169 8.7 15.6 0.00 0.00 0.00 51 1018.4
20260905050006 70 186 8.7 15.6 0.00 0.00 0.00 51 1018.4
20260905050002 70 186 7.8 15.6 0.00 0.00 0.00 51 1000.8
20260905045503 70 152 9.6 12.2 0.00 0.00 0.00 51 1018.4
20260905045005 70 157 8.7 11.3 0.00 0.00 0.00 50 1018.4
20260905044504 70 151 8.7 11.3 0.00 0.00 0.00 50 1018.4
20260905044006 70 150 8.7 10.4 0.00 0.00 0.00 50 1018.4
20260905043503 70 150 8.7 13.0 0.00 0.00 0.00 50 1018.5
20260905043002 70 144 7.8 13.0 0.00 0.00 0.00 50 1000.9
20260905042503 70 149 7.8 12.2 0.00 0.00 0.00 50 1018.6
20260905042004 70 146 7.8 12.2 0.00 0.00 0.00 50 1018.5
20260905041504 70 161 7.0 12.2 0.00 0.00 0.00 50 1018.5
20260905041004 70 171 7.8 10.4 0.00 0.00 0.00 49 1018.4
20260905040503 70 140 7.8 10.4 0.00 0.00 0.00 49 1018.5
20260905040007 70 147 7.8 12.2 0.00 0.00 0.00 49 1018.5
20260905040002 70 147 7.0 12.2 0.00 0.00 0.00 49 1000.9
20260905035504 71 162 8.7 10.4 0.00 0.00 0.00 48 1018.5
20260905035004 71 175 8.7 13.9 0.00 0.00 0.00 48 1018.6
20260905034503 72 172 8.7 13.9 0.00 0.00 0.00 47 1018.5
20260905033504 72 154 8.7 16.5 0.00 0.00 0.00 47 1018.5
20260905033004 72 156 8.7 13.0 0.00 0.00 0.00 47 1018.5
20260905033002 72 156 7.8 13.0 0.00 0.00 0.00 47 1000.9
20260905032506 72 162 8.7 13.9 0.00 0.00 0.00 47 1018.4
20260905032004 72 153 7.0 10.4 0.00 0.00 0.00 47 1018.4
20260905031508 72 151 6.1 9.6 0.00 0.00 0.00 47 1000.8
20260905031506 72 151 7.0 9.6 0.00 0.00 0.00 47 1018.4
20260905031006 72 160 3.5 7.8 0.00 0.00 0.00 48 1018.4
20260905030505 72 148 3.5 12.2 0.00 0.00 0.00 47 1018.4
20260905030008 73 154 7.0 16.5 0.00 0.00 0.00 45 1018.4
20260905030004 73 154 6.1 16.5 0.00 0.00 0.00 45 1000.8
20260905025006 74 167 10.4 14.8 0.00 0.00 0.00 41 1018.3
20260905024506 74 136 3.5 12.2 0.00 0.00 0.00 39 1018.4
20260905024504 74 136 2.6 12.2 0.00 0.00 0.00 39 1000.9
20260905024006 75 155 7.8 13.9 0.00 0.00 0.00 37 1018.4
20260905023505 75 148 7.0 9.6 0.00 0.00 0.00 38 1018.2
20260905023006 75 148 7.0 12.2 0.00 0.00 0.00 38 1018.2
20260905023004 75 148 6.1 12.2 0.00 0.00 0.00 38 1000.7
20260905022506 76 151 6.1 14.8 0.00 0.00 0.00 37 1018.2
20260905021506 74 157 5.2 8.7 0.00 0.00 0.00 39 1018.4
20260905021504 74 157 5.2 8.7 0.00 0.00 0.00 39 1000.8
20260905021006 73 177 2.6 5.2 0.00 0.00 0.00 38 1018.2
20260905020505 73 28 0.0 0.9 0.00 0.00 0.00 40 1018.1
20260905020010 73 28 0.0 0.9 0.00 0.00 0.00 45 1000.5
20260905020006 73 28 0.0 0.9 0.00 0.00 0.00 45 1018.0
20260905015505 74 28 0.0 2.6 0.00 0.00 0.00 44 1017.9
20260905015007 75 28 0.9 2.6 0.00 0.00 0.00 39 1017.8
20260905014505 75 28 1.7 3.5 0.00 0.00 0.00 39 1017.8
20260905013959 76 28 1.7 3.5 0.00 0.00 0.00 36 1017.8
20260905013007 76 163 3.5 6.1 0.00 0.00 0.00 34 1017.6
20260905013004 76 163 2.6 6.1 0.00 0.00 0.00 34 1000.1
20260905012506 76 150 3.5 7.0 0.00 0.00 0.00 34 1017.4
20260905012008 76 136 4.3 7.0 0.00 0.00 0.00 35 1017.2
20260905011511 75 133 4.3 7.0 0.00 0.00 0.00 35 999.6
20260905011007 76 130 5.2 7.0 0.00 0.00 0.00 35 1017.2
20260905010505 76 131 3.5 7.8 0.00 0.00 0.00 36 1017.2
20260905010008 76 139 5.2 9.6 0.00 0.00 0.00 35 1017.0
20260905010004 76 139 5.2 9.6 0.00 0.00 0.00 35 999.6
20260905005505 77 126 6.1 10.4 0.00 0.00 0.00 34 1017.0
20260905005008 78 124 7.8 11.3 0.00 0.00 0.00 32 1016.9
20260905004503 78 133 6.1 11.3 0.00 0.00 0.00 32 999.4
20260905004006 78 116 7.0 10.4 0.00 0.00 0.00 32 1016.9
20260905003506 79 125 6.1 10.4 0.00 0.00 0.00 31 1016.9
20260905003006 79 126 6.1 10.4 0.00 0.00 0.00 31 1017.0
20260905002004 80 101 7.0 11.3 0.00 0.00 0.00 30 1016.8
20260905001506 81 124 8.7 13.0 0.00 0.00 0.00 29 1016.8
20260905001504 81 124 7.8 13.0 0.00 0.00 0.00 29 999.4
20260905001007 81 98 8.7 16.5 0.00 0.00 0.00 29 1016.8
20260905000008 83 112 11.3 17.4 0.00 0.00 0.00 27 1016.7
20260905000005 83 112 10.4 17.4 0.00 0.00 0.00 27 999.2
20260904235005 84 91 9.6 12.2 0.00 0.00 0.00 27 1016.6
20260904234511 84 136 7.0 14.8 0.00 0.00 0.00 27 999.2
20260904234506 84 136 7.8 14.8 0.00 0.00 0.00 27 1016.7
20260904234006 84 98 11.3 14.8 0.00 0.00 0.00 26 1016.7
20260904233008 82 134 10.4 15.6 0.00 0.00 0.00 27 1016.7
20260904233004 82 134 10.4 15.6 0.00 0.00 0.00 27 999.3
20260904232006 83 132 10.4 14.8 0.00 0.00 0.00 26 1016.7
20260904231505 85 136 10.4 14.8 0.00 0.00 0.00 24 1016.5
20260904231503 85 136 9.6 14.8 0.00 0.00 0.00 24 999.1
20260904231006 85 138 8.7 12.2 0.00 0.00 0.00 25 1016.5
20260904230459 85 128 7.8 13.9 0.00 0.00 0.00 25 1016.6
20260904230107 85 119 8.7 13.9 0.00 0.00 0.00 25 999.1
20260904230000 85 112 9.6 13.9 0.00 0.00 0.00 24 1016.6
20260904225505 85 117 9.6 13.9 0.00 0.00 0.00 24 1016.5
20260904224506 86 112 8.7 13.9 0.00 0.00 0.00 25 1016.6
20260904224006 86 192 6.1 13.0 0.00 0.00 0.00 24 1016.6
20260904223507 86 117 7.8 14.8 0.00 0.00 0.00 25 1016.6
20260904223007 86 121 10.4 14.8 0.00 0.00 0.00 25 1016.5
20260904223004 86 121 9.6 14.8 0.00 0.00 0.00 25 999.1
20260904222506 86 95 10.4 14.8 0.00 0.00 0.00 26 1016.5
20260904222006 85 111 8.7 16.5 0.00 0.00 0.00 24 1016.7
20260904221506 85 111 11.3 16.5 0.00 0.00 0.00 25 1016.8
20260904221006 85 91 9.6 13.9 0.00 0.00 0.00 24 1016.7
20260904220505 85 123 11.3 13.9 0.00 0.00 0.00 24 1016.7
20260904220009 85 83 9.6 13.9 0.00 0.00 0.00 25 1016.7
20260904220004 85 83 8.7 13.9 0.00 0.00 0.00 25 999.3
20260904215506 85 128 8.7 13.9 0.00 0.00 0.00 25 1016.9
20260904215006 86 118 7.8 13.0 0.00 0.00 0.00 24 1016.9
20260904214506 86 150 7.0 14.8 0.00 0.00 0.00 24 1016.9
20260904214000 86 151 8.7 14.8 0.00 0.00 0.00 26 1017.0
20260904213506 85 144 6.1 12.2 0.00 0.00 0.00 26 1016.9
20260904213006 85 106 6.1 11.3 0.00 0.00 0.00 25 1017.0
20260904213004 85 106 6.1 11.3 0.00 0.00 0.00 25 999.7
20260904212506 85 165 7.8 11.3 0.00 0.00 0.00 24 1017.0
20260904211506 86 128 7.0 10.4 0.00 0.00 0.00 24 1017.1
20260904211503 86 128 6.1 10.4 0.00 0.00 0.00 24 999.8
20260904211007 85 132 4.3 9.6 0.00 0.00 0.00 25 1017.2
20260904210007 85 130 7.0 11.3 0.00 0.00 0.00 23 1017.3
20260904210004 85 130 6.1 11.3 0.00 0.00 0.00 23 999.9
20260904205506 86 80 7.8 13.0 0.00 0.00 0.00 23 1017.3
20260904204503 86 116 9.6 13.0 0.00 0.00 0.00 22 1000.1
20260904203505 85 109 5.2 13.9 0.00 0.00 0.00 23 1017.6
20260904203009 85 119 10.4 15.6 0.00 0.00 0.00 22 1000.3
20260904203006 85 130 10.4 15.6 0.00 0.00 0.00 22 1017.6
20260904202506 85 159 11.3 15.6 0.00 0.00 0.00 23 1017.5
20260904201507 84 146 8.7 11.3 0.00 0.00 0.00 25 1017.6
20260904201504 84 146 8.7 11.3 0.00 0.00 0.00 25 1000.3
20260904201006 85 102 4.3 9.6 0.00 0.00 0.00 23 1017.7
20260904200008 85 166 4.3 7.8 0.00 0.00 0.00 22 1017.8
20260904200006 85 166 3.5 7.8 0.00 0.00 0.00 22 1000.5
20260904195006 84 5 2.6 6.1 0.00 0.00 0.00 23 1017.9
20260904194505 84 237 3.5 7.0 0.00 0.00 0.00 23 1017.9
20260904194503 84 237 3.5 7.0 0.00 0.00 0.00 23 1000.6
20260904194006 84 283 3.5 9.6 0.00 0.00 0.00 24 1017.9
20260904193506 85 186 5.2 12.2 0.00 0.00 0.00 22 1018.0
20260904193008 86 284 7.0 12.2 0.00 0.00 0.00 22 1000.6
20260904193006 86 284 7.0 12.2 0.00 0.00 0.00 22 1017.9
20260904192506 86 213 4.3 9.6 0.00 0.00 0.00 22 1018.0
20260904192011 85 245 3.5 8.7 0.00 0.00 0.00 23 1018.0
20260904191505 84 236 3.5 7.0 0.00 0.00 0.00 24 1018.0
20260904190010 84 150 5.2 15.6 0.00 0.00 0.00 23 1001.1
20260904190007 84 150 5.2 15.6 0.00 0.00 0.00 23 1018.3
20260904185506 84 190 2.6 10.4 0.00 0.00 0.00 24 1018.4
20260904185006 84 276 4.3 8.7 0.00 0.00 0.00 23 1018.4
20260904184505 83 281 2.6 10.4 0.00 0.00 0.00 25 1018.4
20260904184503 83 281 2.6 10.4 0.00 0.00 0.00 25 1001.2
20260904184006 83 156 7.0 10.4 0.00 0.00 0.00 23 1018.4
20260904183506 83 194 6.1 9.6 0.00 0.00 0.00 23 1018.4
20260904183004 83 255 4.3 8.7 0.00 0.00 0.00 23 1001.3
20260904182006 83 190 5.2 11.3 0.00 0.00 0.00 22 1018.6
20260904181505 83 257 4.3 9.6 0.00 0.00 0.00 22 1018.7
20260904181503 83 257 3.5 9.6 0.00 0.00 0.00 22 1001.6
20260904181007 83 238 3.5 14.8 0.00 0.00 0.00 23 1018.8
20260904180006 82 245 2.6 11.3 0.00 0.00 0.00 24 1001.8
20260904175505 82 216 5.2 13.9 0.00 0.00 0.00 23 1018.9
20260904175007 83 264 5.2 13.9 0.00 0.00 0.00 23 1018.9
20260904174506 82 261 3.5 7.8 0.00 0.00 0.00 23 1019.0
20260904174504 82 261 3.5 7.8 0.00 0.00 0.00 23 1002.0
20260904173506 82 244 4.3 8.7 0.00 0.00 0.00 23 1019.0
20260904173003 81 292 1.7 9.6 0.00 0.00 0.00 22 1002.1
20260904172505 81 255 4.3 11.3 0.00 0.00 0.00 22 1019.0
20260904171505 81 302 3.5 8.7 0.00 0.00 0.00 23 1019.0
20260904171503 81 302 3.5 8.7 0.00 0.00 0.00 23 1002.1
20260904171007 81 241 3.5 11.3 0.00 0.00 0.00 25 1019.0
20260904170505 81 202 3.5 11.3 0.00 0.00 0.00 23 1019.0
20260904170007 81 281 5.2 7.0 0.00 0.00 0.00 24 1019.0
20260904170004 81 281 4.3 7.0 0.00 0.00 0.00 24 1002.2
20260904165505 81 306 2.6 7.0 0.00 0.00 0.00 24 1018.9
20260904164506 80 246 4.3 12.2 0.00 0.00 0.00 25 1019.0
20260904164006 81 244 5.2 12.2 0.00 0.00 0.00 25 1019.0
20260904163504 80 223 3.5 6.1 0.00 0.00 0.00 24 1019.0
20260904163007 80 296 3.5 9.6 0.00 0.00 0.00 24 1019.0
20260904163003 80 296 2.6 9.6 0.00 0.00 0.00 24 1002.2
20260904162511 80 223 5.2 10.4 0.00 0.00 0.00 24 1018.9
20260904161504 80 248 2.6 9.6 0.00 0.00 0.00 24 1002.0
20260904161006 79 251 5.2 9.6 0.00 0.00 0.00 24 1018.8
20260904160505 79 277 3.5 7.8 0.00 0.00 0.00 24 1018.8
20260904160007 79 240 1.7 7.8 0.00 0.00 0.00 24 1002.0
20260904155506 79 249 2.6 7.8 0.00 0.00 0.00 25 1018.8
20260904155006 78 306 2.6 7.0 0.00 0.00 0.00 25 1018.8
20260904154505 78 224 2.6 7.8 0.00 0.00 0.00 24 1018.8
20260904154503 78 224 2.6 7.8 0.00 0.00 0.00 24 1002.0
20260904154006 78 298 2.6 7.8 0.00 0.00 0.00 25 1018.8
20260904153506 77 261 2.6 7.8 0.00 0.00 0.00 25 1018.8
20260904153007 77 269 1.7 7.8 0.00 0.00 0.00 26 1018.9
20260904153004 77 269 1.7 7.8 0.00 0.00 0.00 26 1002.1